#timestamp,LO_Frequency,Hit,StdDev 
1649059215.3,286046990.2,N
1649059235.1,286046986.3,N
1649059255.9,286046987.7,N
1649059305.7,286046987.9,E
1649059315.7,286046999.3,N
1649059335.5,286046998.5,P
1649059355.3,286046998.5,P
1649059375.2,286046998.5,Y
1649059395.0,286046999.9,P
1649059395.9,286046999.7,N
1649059415.8,286047002.5,P
1649059435.6,286047002.3,N
1649059455.4,286047002.8,N
1649059475.3,286047002.7,N
1649059495.1,286046999.9,N
1649059515.8,286047000.0,N
1649059535.7,286047000.5,N
1649059555.5,286046998.2,N
1649059575.4,286046998.6,N
1649059595.2,286046998.7,N
1649059615.0,286046998.8,N
1649059615.9,286046998.4,N
1649059635.8,286046998.9,N
1649059655.6,286046999.6,N
1649059675.5,286046996.9,N
1649059695.3,286046997.0,N
1649059715.1,286047002.2,N
1649059735.9,286047013.6,Y
1649059755.7,286047018.3,P
1649059775.6,286047016.4,N
1649059795.4,286047014.4,N
1649059815.2,286047013.2,N
1649059835.1,286047018.2,N
1649059836.0,286047019.1,Y
1649059855.8,286047031.1,P
1649059875.6,286047045.4,P
1649059895.5,286047051.1,P
1649059915.3,286047056.4,Y
1649059935.2,286047028.9,P
1649059955.0,286047035.4,P
1649059955.9,286047040.5,P
1649059975.7,286047051.2,Y
1649059995.6,286047022.1,P
1649060015.4,286047022.1,P
1649060035.3,286047024.2,P
1649060055.1,286047035.5,Y
1649060075.8,286047026.2,P
1649060095.7,286047028.3,P
1649060115.5,286047041.0,P
1649060135.4,286047042.4,Y
1649060155.2,286047003.8,P
1649060175.0,286047000.7,N
1649060175.9,286046995.5,N
1649060195.8,286046996.5,N
1649060215.6,286047013.4,N
1649060235.5,286047033.7,N
1649060255.3,286047050.3,Y
1649060275.1,286047053.0,P
1649060295.9,286047067.8,P
1649060315.7,286047085.7,P
1649060335.6,286047106.5,Y
1649060355.4,286047054.9,P
1649060405.3,286047062.8,E
1649060415.2,286047068.1,N
1649060435.0,286047002.4,P
1649060435.9,286046998.7,N
1649060455.8,286046989.6,N
1649060475.6,286046985.5,N
1649060495.4,286046988.4,N
1649060515.3,286046973.7,N
1649060535.1,286046965.2,N
1649060555.9,286046975.0,N
1649060575.7,286046971.4,N
1649060595.5,286046983.0,N
1649060615.4,286046988.0,N
1649060635.2,286046997.7,N
1649060655.0,286046993.3,N
1649060656.0,286046991.9,N
1649060675.8,286046994.5,N
1649060695.6,286046991.7,N
1649060715.5,286047006.0,N
1649060735.3,286047009.1,N
1649060755.1,286047026.0,N
1649060775.9,286047041.7,N
1649060795.7,286047051.8,N
1649060815.6,286047051.1,N
1649060835.4,286047051.5,N
1649060855.2,286047060.0,N
1649060875.1,286047069.1,N
1649060876.0,286047076.4,N
1649060895.8,286047074.9,N
1649060915.6,286047082.0,N
1649060935.5,286047072.2,N
1649060955.3,286047072.4,N
1649060975.2,286047064.2,N
1649060995.9,286047059.5,N
1649061015.7,286047054.9,N
1649061035.6,286047046.7,N
1649061055.4,286047044.8,N
1649061075.2,286047047.7,N
1649061095.1,286047051.0,N
1649061096.0,286047051.6,N
1649061115.8,286047050.0,N
1649061135.7,286047039.7,N
1649061155.5,286047039.5,N
1649061175.3,286047047.0,N
1649061195.2,286047054.3,N
1649061215.0,286047063.3,N
1649061215.9,286047068.4,Y
1649061235.7,286047024.1,P
1649061255.6,286047021.3,N
1649061275.4,286047020.7,N
1649061295.3,286047021.3,N
1649061315.1,286047027.6,N
1649061316.0,286047032.7,Y
1649061335.8,286047008.7,P
1649061355.7,286047003.5,N
1649061375.5,286047007.0,N
1649061395.4,286047009.9,N
1649061415.2,286047018.6,N
1649061435.0,286047025.0,Y
1649061435.9,286047030.2,P
1649061455.8,286047023.0,N
1649061475.6,286047024.7,P
1649061495.4,286047028.8,Y
1649061515.3,286047014.9,P
1649061535.1,286047021.3,P
1649061555.9,286047035.6,P
1649061575.7,286047040.2,Y
1649061595.5,286047034.2,P
1649061615.4,286047036.9,P
1649061635.2,286047052.9,P
1649061655.1,286047054.2,Y
1649061656.0,286047053.0,P
1649061675.8,286047016.9,N
1649061695.6,286047013.7,N
1649061715.5,286047008.0,N
1649061735.3,286047012.5,N
1649061755.1,286047012.3,N
1649061775.9,286047009.9,N
1649061795.7,286047017.9,N
1649061815.6,286047016.3,N
1649061835.4,286047013.0,N
1649061855.2,286047020.1,N
1649061875.1,286047030.2,N
1649061876.0,286047035.9,N
1649061895.8,286047043.0,Y
1649061915.6,286047027.7,P
1649061935.5,286047027.1,P
1649061955.3,286047027.3,P
1649061975.2,286047031.3,Y
1649061995.9,286047013.4,P
1649062015.7,286047008.9,N
1649062035.6,286047003.9,N
1649062055.4,286047003.7,N
1649062075.2,286047005.1,N
1649062095.1,286046998.6,N
1649062096.0,286046998.5,N
1649062115.8,286047001.7,N
1649062135.7,286047006.9,N
1649062155.5,286047008.9,N
1649062175.3,286047006.2,N
1649062195.2,286046998.9,N
1649062215.0,286047002.4,N
1649062215.9,286046994.7,N
1649062235.7,286046996.9,N
1649062255.6,286046997.1,N
1649062275.4,286047000.8,N
1649062295.3,286047000.1,N
1649062315.1,286047002.5,N
1649062316.0,286047004.9,N
1649062335.8,286047007.3,N
1649062355.7,286047005.4,N
1649062375.5,286046995.2,N
1649062395.3,286046990.1,N
1649062415.2,286046991.7,N
1649062435.0,286046979.8,N
1649062435.9,286046980.2,N
1649062455.8,286046984.3,N
1649062475.6,286046977.0,N
1649062495.4,286046976.4,N
1649062515.3,286046989.6,N
1649062535.1,286046994.0,N
1649062555.9,286046971.0,Y
1649062575.7,286046961.4,P
1649062595.5,286046953.2,N
1649062615.4,286046945.6,N
1649062635.2,286046933.5,Y
1649062655.0,286046960.5,P
1649062655.9,286046954.4,P
1649062675.8,286046954.0,P
1649062695.6,286046953.7,Y
1649062715.5,286046960.7,P
1649062735.3,286046974.9,P
1649062755.1,286046962.9,P
1649062775.9,286046946.0,Y
1649062795.7,286046969.8,P
